Карамык

Киргизия     39°29′22″N   71°47′49″E
темп.,
°C
ветер,
м/с
пор.,
м/с
влажн.,
%
обл.,
%
осадки,
мм/ч
давл.,
гПа
погр.,
м
20 января, ср
ср2000:00−10ююз1194100 1.0 102522
03:00−11ююз1295100 1.0 102628
06:00−12зюз1293100 1.4 102921
09:00−13зюз228380 0.3 103221
12:00−9юз227740 0.3 1030177
15:00−7юз12720 0.0 1027263
18:00−12сз126720 0.0 102921
21:00−15с124545 0.0 103121
21 января, чт
чт2100:00−16с124422 0.0 103121
03:00−17ссв12360 0.0 103120
06:00−18ссв12280 0.0 102920
09:00−19ссв12250 0.0 102820
12:00−11ссв11500 0.0 102059
15:00−8в115717 0.0 101377
18:00−12ссз114259 0.0 101321
21:00−12ссз1231100 0.0 101321
22 января, пт
пт2200:00−11зсз2253100 0.3 101221
03:00−11зсз2285100 0.8 101225
06:00−11ююз1295100 3.0 101446
09:00−11з2395100 1.6 101993
12:00−10юз4692100 2.1 1021545
15:00−10юз5788100 0.9 1022891
18:00−15юз4595100 1.4 1029143
21:00−19зюз4594100 0.3 103661
23 января, сб
сб2300:00−22зюз4489100 0.4 103947
03:00−24з348499 0.1 104231
06:00−25з348399 0.1 104326
09:00−25з3379100 0.0 104723
12:00−20юз348375 0.0 1042288
15:00−18юз45810 0.0 1038335
18:00−21з457541 0.0 104145
21:00−21з3460100 0.0 104424
24 января, вс
вс2400:00−23з235386 0.0 104620
03:00−24зсз12480 0.0 104620
06:00−24ссз12433 0.0 104620
09:00−23ссв224212 0.0 104620
12:00−18св22636 0.0 104098
15:00−15всв22730 0.0 1035100
18:00−19св22570 0.0 103620
21:00−21ссв22290 0.0 103820